This is the latest recevied weather packets stored in our database for station/object DM1HF-13. If no packets are shown the sender has not sent any weather packets the latest 10 day(s).
| Time | Temp. | Humidity | Pressure | Rain* | Wind** | Luminosity | Snow |
|---|---|---|---|---|---|---|---|
| 1778173816 | 8.33° C | 94% | 1017.8 hPa | 0 mm | - | 12 W/m² | - |
| 1778171116 | 8.89° C | 92% | 1017.5 hPa | 0 mm | - | 9 W/m² | - |
| 1778166916 | 8.89° C | 92% | 1017.2 hPa | 0 mm | - | 24 W/m² | - |
| 1778166616 | 8.89° C | 92% | 1017.1 hPa | 0 mm | - | 25 W/m² | - |
| 1778166316 | 8.89° C | 92% | 1017.1 hPa | 0 mm | - | 29 W/m² | - |
| 1778164816 | 8.89° C | 91% | 1017 hPa | 0 mm | - | 25 W/m² | - |
| 1778164516 | 8.89° C | 91% | 1016.9 hPa | 0 mm | - | 33 W/m² | - |
| 1778164216 | 8.89° C | 90% | 1016.9 hPa | 0 mm | - | 39 W/m² | - |
| 1778162716 | 8.89° C | 90% | 1016.8 hPa | 0 mm | - | 69 W/m² | - |
| 1778162116 | 9.44° C | 91% | 1016.7 hPa | 0 mm | - | 57 W/m² | - |
| 1778161216 | 8.89° C | 92% | 1016.5 hPa | 0 mm | - | 64 W/m² | - |
| 1778160916 | 8.89° C | 92% | 1016.6 hPa | 0 mm | - | 53 W/m² | - |
| 1778160616 | 8.89° C | 92% | 1016.5 hPa | 0 mm | - | 63 W/m² | - |
| 1778160316 | 8.89° C | 91% | 1016.5 hPa | 0 mm | - | 87 W/m² | - |
| 1778160016 | 8.89° C | 92% | 1016.5 hPa | 0 mm | - | 96 W/m² | - |
| 1778159716 | 8.89° C | 92% | 1016.4 hPa | 0 mm | - | 96 W/m² | - |
| 1778159416 | 8.89° C | 92% | 1016.4 hPa | 0 mm | - | 75 W/m² | - |
| 1778159116 | 8.89° C | 92% | 1016.3 hPa | 0 mm | - | 69 W/m² | - |
| 1778157616 | 8.89° C | 92% | 1016.1 hPa | 0 mm | - | 75 W/m² | - |
| 1778157316 | 8.89° C | 92% | 1016.1 hPa | 0 mm | - | 66 W/m² | - |
| 1778157016 | 8.89° C | 93% | 1016 hPa | 0.25 mm | - | 59 W/m² | - |
| 1778156716 | 8.33° C | 92% | 1015.9 hPa | 1.27 mm | - | 62 W/m² | - |
| 1778156416 | 8.89° C | 93% | 1015.9 hPa | 0.25 mm | - | 66 W/m² | - |
| 1778156116 | 8.89° C | 93% | 1015.9 hPa | 0 mm | - | 66 W/m² | - |
| 1778155816 | 8.33° C | 93% | 1015.8 hPa | 0 mm | - | 61 W/m² | - |
* Rain latest hour (hover to see other rain measurements)
** Current wind speed in m/s (hover to see current wind gust speed)